Regional Weather Roundup
Issued by NWS

Home | Current Version | Previous Version | Text Only | Print | Product List | Glossary On
Versions: 1 2 3 4 5 6 7 8 9 10 11 12 13 14 15 16 17 18 19 20 21 22 23 24 25 26 27 28 29 30 31 32 33 34 35 36 37 38 39 40 41 42 43 44 45 46 47 48 49
000
ASUS46 KSEW 031910
RWRWA

WASHINGTON REGIONAL WEATHER ROUNDUP
NATIONAL WEATHER SERVICE SEATTLE WA
1200 PM PDT SUN MAY 03 2015

NOTE:"FAIR" INDICATES FEW OR NO CLOUDS BELOW 12,000 FEET WITH NO
SIGNIFICANT WEATHER AND/OR OBSTRUCTIONS TO VISIBILITY.

WAZ505-507>509-032000-
SEATTLE, TACOMA, EVERETT, AND VICINITY

CITY           SKY/WX    TMP DP  RH WIND       PRES   REMARKS
EVERETT        SUNNY     58  41  53 N6        30.01S
BOEING FIELD   SUNNY     63  40  42 W9        30.00F
RENTON         SUNNY     61  40  45 NW10      29.99F
SEATAC AIRPORT SUNNY     59  41  51 W9        30.00F
JBLM-MCCHORD   SUNNY     61  37  41 N9        29.99F
PUYALLUP       FAIR      61  36  39 CALM      29.99F
BREMERTON      SUNNY     63  41  45 NE8       30.01F
JBLM-FT LEWIS  SUNNY     61  37  40 N8        29.99F
TACOMA NARROWS SUNNY     59  37  44 VRB6      30.01S
$$

WAZ001-503-506-510-514-515-032000-
NORTH INTERIOR

CITY           SKY/WX    TMP DP  RH WIND       PRES   REMARKS
BELLINGHAM     SUNNY     61  42  49 N6        30.01S
FRIDAY HARBOR  SUNNY     59  43  55 N9        30.03S
EASTSOUND      SUNNY     54  43  66 NW6       30.01F
PORT ANGELES   SUNNY     58  41  53 E7        30.03S
NAS WHIDBEY    SUNNY     57  46  66 W8        30.02F
ARLINGTON      SUNNY     61  45  55 NW10      30.01F
BURLINGTON     SUNNY     59  46  63 N3        30.01F
$$

WAZ020-022-039-040-504-511-512-032000-
SOUTHWEST INTERIOR

CITY           SKY/WX    TMP DP  RH WIND       PRES   REMARKS
SHELTON        SUNNY     62  41  46 VRB3      29.97F
OLYMPIA        SUNNY     62  37  39 E8        30.00F
CHEHALIS       FAIR      64  39  39 N5G15     29.98F
KELSO          SUNNY     64  34  32 NW12      29.99F
VANCOUVER      SUNNY     61  40  45 W5        29.95F
SCAPPOOSE, OR  SUNNY     65  42  43 VRB6      29.94F
PORTLAND, OR   SUNNY     62  42  47 W9        29.96F
$$

WAZ021-516-517-032000-
WASHINGTON COAST

CITY           SKY/WX    TMP DP  RH WIND       PRES   REMARKS
FORKS          SUNNY     58  47  66 W6        30.01S
HOQUIAM        SUNNY     59  45  59 SW10      30.00F
ASTORIA, OR    SUNNY     61  47  59 N9        29.98F
$$

WAZ019-023-024-040-518-519-032000-
CASCADE MOUNTAINS AND COLUMBIA GORGE

CITY           SKY/WX    TMP DP  RH WIND       PRES   REMARKS
TROUTDALE, OR  SUNNY     63  46  54 VRB3      29.94F
THE DALLES, OR SUNNY     70  40  33 NE6       29.94F
$$

WAZ026-027-041>044-520-521-032000-
EAST SLOPES

CITY           SKY/WX    TMP DP  RH WIND       PRES   REMARKS
OMAK           SUNNY     65  25  22 VRB6      30.00F
WENATCHEE      SUNNY     66  27  23 NW5       29.97F
ELLENSBURG     SUNNY     68  29  23 SE8       29.97F
YAKIMA         SUNNY     70  27  20 VRB3      29.95F
$$

WAZ028-034-035-032000-
COLUMBIA BASIN

CITY           SKY/WX    TMP DP  RH WIND       PRES   REMARKS
EPHRATA        SUNNY     67  22  18 VRB5      29.97F
MOSES LAKE     SUNNY     70  26  19 VRB3      29.97F
PASCO          SUNNY     68  36  30 NW7       29.96F
HERMISTON, OR  SUNNY     69  33  26 VRB7      29.95F
$$

WAZ036>038-032000-
NORTHEAST WASHINGTON

CITY           SKY/WX    TMP DP  RH WIND       PRES   REMARKS
SPOKANE GEIGER MOSUNNY   62  23  22 NE8       29.98F
SPOKANE FELTS  SUNNY     65  31  28 W3        29.98F
FAIRCHILD AFB  SUNNY     62  26  25 NE5G17    29.99S
COEURDALENE,ID SUNNY     63  27  25 N8        30.00F
DEER PARK      SUNNY     64  24  21 N6        30.00F
$$

WAZ029>033-032000-
SOUTHEAST WASHINGTON

CITY           SKY/WX    TMP DP  RH WIND       PRES   REMARKS
PULLMAN        SUNNY     65  27  23 CALM      29.98F
LEWISTON, ID   SUNNY     66  32  28 VRB3      29.95F
WALLA WALLA    SUNNY     64  32  30 VRB3      29.95F
PENDLETON, OR  SUNNY     67  31  26 VRB3      29.94F
$$


USA.gov is the U.S. government's official web portal to all federal, state and local government web resources and services.